,,PressureMeas_1m,,PRMeasQMR101_1,,RHStat155_1m_1,,SRMeasQMS101R_1m,,TAStat155_1m_1,,GenWind_1,,GenWind_1,
2019-01-02, 00:00:07,VALID,920.55,VALID,0.0,VALID,98.96,VALID,-0.01,VALID,20.132,INVALID,360.0,VALID,0.0,
2019-01-02, 00:01:07,VALID,920.527,VALID,0.0,VALID,98.951,VALID,-0.017,VALID,20.135,INVALID,360.0,VALID,0.0,
2019-01-02, 00:02:07,VALID,920.503,VALID,0.0,VALID,98.949,VALID,-0.013,VALID,20.138,INVALID,360.0,VALID,0.0,
2019-01-02, 00:03:07,VALID,920.489,VALID,0.0,VALID,98.955,VALID,-0.009,VALID,20.132,INVALID,360.0,VALID,0.0,
2019-01-02, 00:04:07,VALID,920.465,VALID,0.0,VALID,98.95,VALID,-0.012,VALID,20.129,INVALID,360.0,VALID,0.0,
2019-01-02, 00:05:07,VALID,920.435,VALID,0.0,VALID,98.961,VALID,-0.013,VALID,20.119,INVALID,360.0,VALID,0.0,
2019-01-02, 00:06:07,VALID,920.432,VALID,0.0,VALID,98.961,VALID,-0.02,VALID,20.118,INVALID,360.0,VALID,0.0,
2019-01-02, 00:07:07,VALID,920.423,VALID,0.0,VALID,98.971,VALID,-0.013,VALID,20.135,INVALID,360.0,VALID,0.0,
2019-01-02, 00:08:07,VALID,920.41,VALID,0.0,VALID,98.976,VALID,-0.012,VALID,20.137,INVALID,360.0,VALID,0.0,
2019-01-02, 00:09:07,VALID,920.395,VALID,0.0,VALID,98.969,VALID,-0.012,VALID,20.145,INVALID,360.0,VALID,0.0,
2019-01-02, 00:10:06,VALID,920.402,VALID,0.0,VALID,98.979,VALID,-0.02,VALID,20.153,INVALID,360.0,VALID,0.0,
2019-01-02, 00:11:06,VALID,920.38,VALID,0.0,VALID,98.979,VALID,-0.01,VALID,20.147,INVALID,360.0,VALID,0.0,
2019-01-02, 00:12:06,VALID,920.388,VALID,0.0,VALID,98.963,VALID,-0.029,VALID,20.161,INVALID,360.0,VALID,0.0,
2019-01-02, 00:13:06,VALID,920.368,VALID,0.0,VALID,98.978,VALID,0.012,VALID,20.178,INVALID,360.0,VALID,0.0,
2019-01-02, 00:14:06,VALID,920.369,VALID,0.0,VALID,98.949,VALID,-0.004,VALID,20.182,INVALID,360.0,VALID,0.0,
2019-01-02, 00:15:06,VALID,920.361,VALID,0.0,VALID,98.946,VALID,-0.004,VALID,20.18,INVALID,360.0,VALID,0.0,
2019-01-02, 00:16:06,VALID,920.343,VALID,0.0,VALID,98.906,VALID,0.007,VALID,20.164,INVALID,360.0,VALID,0.0,
2019-01-02, 00:17:06,VALID,920.319,VALID,0.0,VALID,98.914,VALID,0.001,VALID,20.173,INVALID,360.0,VALID,0.0,
2019-01-02, 00:18:06,VALID,920.321,VALID,0.0,VALID,98.917,VALID,0.001,VALID,20.18,INVALID,360.0,VALID,0.0,
2019-01-02, 00:19:06,VALID,920.296,VALID,0.0,VALID,98.892,VALID,0.003,VALID,20.177,INVALID,360.0,VALID,0.0,
2019-01-02, 00:20:06,VALID,920.28,VALID,0.0,VALID,98.895,VALID,0.002,VALID,20.192,INVALID,360.0,VALID,0.0,
2019-01-02, 00:21:06,VALID,920.252,VALID,0.0,VALID,98.908,VALID,0.01,VALID,20.213,INVALID,360.0,VALID,0.0,
2019-01-02, 00:22:06,VALID,920.239,VALID,0.0,VALID,98.901,VALID,-0.016,VALID,20.234,INVALID,360.0,VALID,0.0,
2019-01-02, 00:23:06,VALID,920.222,VALID,0.0,VALID,98.875,VALID,0.005,VALID,20.22,INVALID,360.0,VALID,0.0,
2019-01-02, 00:24:06,VALID,920.253,VALID,0.0,VALID,98.852,VALID,-0.003,VALID,20.215,INVALID,360.0,VALID,0.0,
2019-01-02, 00:25:06,VALID,920.261,VALID,0.0,VALID,98.825,VALID,0.019,VALID,20.214,INVALID,360.0,VALID,0.0,
2019-01-02, 00:26:06,VALID,920.275,VALID,0.0,VALID,98.827,VALID,0.011,VALID,20.203,INVALID,360.0,VALID,0.0,
2019-01-02, 00:27:06,VALID,920.268,VALID,0.0,VALID,98.821,VALID,0.012,VALID,20.217,INVALID,360.0,VALID,0.0,
2019-01-02, 00:28:06,VALID,920.271,VALID,0.0,VALID,98.824,VALID,0.013,VALID,20.267,INVALID,360.0,VALID,0.0,
2019-01-02, 00:29:06,VALID,920.261,VALID,0.0,VALID,98.868,VALID,0.004,VALID,20.324,INVALID,360.0,VALID,0.0,
2019-01-02, 00:30:06,VALID,920.265,VALID,0.0,VALID,98.832,VALID,0.009,VALID,20.322,INVALID,360.0,VALID,0.0,
2019-01-02, 00:31:06,VALID,920.257,VALID,0.0,VALID,98.793,VALID,0.008,VALID,20.311,INVALID,360.0,VALID,0.0,
2019-01-02, 00:32:06,VALID,920.248,VALID,0.0,VALID,98.771,VALID,-0.003,VALID,20.297,INVALID,360.0,VALID,0.0,
2019-01-02, 00:33:06,VALID,920.234,VALID,0.0,VALID,98.756,VALID,0.004,VALID,20.289,INVALID,360.0,VALID,0.0,
2019-01-02, 00:34:06,VALID,920.242,VALID,0.0,VALID,98.717,VALID,0.006,VALID,20.284,INVALID,360.0,VALID,0.0,
2019-01-02, 00:35:06,VALID,920.232,VALID,0.0,VALID,98.702,VALID,-0.012,VALID,20.292,INVALID,360.0,VALID,0.0,
2019-01-02, 00:36:06,VALID,920.214,VALID,0.0,VALID,98.703,VALID,-0.001,VALID,20.324,INVALID,360.0,VALID,0.0,
2019-01-02, 00:37:06,VALID,920.22,VALID,0.0,VALID,98.701,VALID,-0.002,VALID,20.348,INVALID,360.0,VALID,0.0,
2019-01-02, 00:38:06,VALID,920.202,VALID,0.0,VALID,98.675,VALID,0.009,VALID,20.364,INVALID,360.0,VALID,0.0,
2019-01-02, 00:39:06,VALID,920.203,VALID,0.0,VALID,98.641,VALID,0.01,VALID,20.384,INVALID,360.0,VALID,0.0,
2019-01-02, 00:40:06,VALID,920.193,VALID,0.0,VALID,98.629,VALID,0.001,VALID,20.399,INVALID,360.0,VALID,0.0,
2019-01-02, 00:41:06,VALID,920.189,VALID,0.0,VALID,98.67,VALID,-0.005,VALID,20.431,INVALID,360.0,VALID,0.0,
2019-01-02, 00:42:06,VALID,920.17,VALID,0.0,VALID,98.604,VALID,0.012,VALID,20.422,INVALID,360.0,VALID,0.0,
2019-01-02, 00:43:06,VALID,920.191,VALID,0.0,VALID,98.535,VALID,0.022,VALID,20.388,INVALID,360.0,VALID,0.0,
2019-01-02, 00:44:06,VALID,920.178,VALID,0.0,VALID,98.519,VALID,-0.004,VALID,20.375,INVALID,360.0,VALID,0.0,
2019-01-02, 00:45:06,VALID,920.206,VALID,0.0,VALID,98.515,VALID,0.007,VALID,20.367,INVALID,360.0,VALID,0.0,
2019-01-02, 00:46:06,VALID,920.216,VALID,0.0,VALID,98.495,VALID,0.023,VALID,20.355,INVALID,360.0,VALID,0.0,
2019-01-02, 00:47:06,VALID,920.222,VALID,0.0,VALID,98.433,VALID,0.032,VALID,20.322,INVALID,360.0,VALID,0.0,
2019-01-02, 00:48:06,VALID,920.221,VALID,0.0,VALID,98.451,VALID,0.012,VALID,20.329,INVALID,360.0,VALID,0.0,
2019-01-02, 00:49:06,VALID,920.209,VALID,0.0,VALID,98.437,VALID,0.034,VALID,20.32,INVALID,360.0,VALID,0.0,
2019-01-02, 00:50:06,VALID,920.21,VALID,0.0,VALID,98.452,VALID,0.025,VALID,20.333,INVALID,360.0,VALID,0.0,
2019-01-02, 00:51:06,VALID,920.212,VALID,0.0,VALID,98.424,VALID,0.02,VALID,20.323,INVALID,360.0,VALID,0.0,
2019-01-02, 00:52:06,VALID,920.203,VALID,0.0,VALID,98.394,VALID,0.017,VALID,20.321,INVALID,360.0,VALID,0.0,
2019-01-02, 00:53:06,VALID,920.198,VALID,0.0,VALID,98.414,VALID,0.025,VALID,20.324,INVALID,360.0,VALID,0.0,
2019-01-02, 00:54:06,VALID,920.202,VALID,0.0,VALID,98.409,VALID,0.016,VALID,20.327,INVALID,360.0,VALID,0.0,
2019-01-02, 00:55:06,VALID,920.18,VALID,0.0,VALID,98.422,VALID,0.02,VALID,20.336,INVALID,360.0,VALID,0.0,
2019-01-02, 00:56:06,VALID,920.179,VALID,0.0,VALID,98.329,VALID,0.008,VALID,20.322,INVALID,360.0,VALID,0.0,
2019-01-02, 00:57:06,VALID,920.175,VALID,0.0,VALID,98.35,VALID,0.007,VALID,20.337,INVALID,360.0,VALID,0.0,
2019-01-02, 00:58:06,VALID,920.182,VALID,0.0,VALID,98.351,VALID,0.02,VALID,20.359,INVALID,360.0,VALID,0.0,
2019-01-02, 00:59:06,VALID,920.163,VALID,0.0,VALID,98.31,VALID,0.018,VALID,20.367,INVALID,360.0,VALID,0.0,
2019-01-02, 01:00:06,VALID,920.156,VALID,0.0,VALID,98.299,VALID,0.025,VALID,20.382,INVALID,360.0,VALID,0.0,
2019-01-02, 01:01:06,VALID,920.133,VALID,0.0,VALID,98.344,VALID,0.012,VALID,20.429,INVALID,360.0,VALID,0.0,
2019-01-02, 01:02:06,VALID,920.127,VALID,0.0,VALID,98.324,VALID,-0.005,VALID,20.438,INVALID,360.0,VALID,0.0,
2019-01-02, 01:03:06,VALID,920.093,VALID,0.0,VALID,98.208,VALID,0.018,VALID,20.41,INVALID,360.0,VALID,0.0,
2019-01-02, 01:04:06,VALID,920.1,VALID,0.0,VALID,98.048,VALID,0.018,VALID,20.378,INVALID,360.0,VALID,0.0,
2019-01-02, 01:05:06,VALID,920.085,VALID,0.0,VALID,98.012,VALID,0.005,VALID,20.392,INVALID,360.0,VALID,0.0,
2019-01-02, 01:06:06,VALID,920.073,VALID,0.0,VALID,97.864,VALID,0.019,VALID,20.367,INVALID,360.0,VALID,0.0,
2019-01-02, 01:07:06,VALID,920.08,VALID,0.0,VALID,97.719,VALID,0.015,VALID,20.357,INVALID,360.0,VALID,0.0,
2019-01-02, 01:08:06,VALID,920.073,VALID,0.0,VALID,97.623,VALID,0.0,VALID,20.349,INVALID,360.0,VALID,0.0,
2019-01-02, 01:09:06,VALID,920.06,VALID,0.0,VALID,97.548,VALID,0.01,VALID,20.339,INVALID,360.0,VALID,0.0,
2019-01-02, 01:10:06,VALID,920.058,VALID,0.0,VALID,97.613,VALID,0.009,VALID,20.369,INVALID,360.0,VALID,0.0,
2019-01-02, 01:11:06,VALID,920.045,VALID,0.0,VALID,97.761,VALID,0.006,VALID,20.418,INVALID,360.0,VALID,0.0,
2019-01-02, 01:12:06,VALID,920.048,VALID,0.0,VALID,97.75,VALID,-0.016,VALID,20.425,INVALID,360.0,VALID,0.0,
2019-01-02, 01:13:06,VALID,920.024,VALID,0.0,VALID,97.576,VALID,0.008,VALID,20.386,INVALID,360.0,VALID,0.0,
2019-01-02, 01:14:06,VALID,920.011,VALID,0.0,VALID,97.582,VALID,-0.002,VALID,20.424,INVALID,360.0,VALID,0.0,
2019-01-02, 01:15:06,VALID,920.012,VALID,0.0,VALID,97.572,VALID,-0.023,VALID,20.434,INVALID,360.0,VALID,0.0,
2019-01-02, 01:16:06,VALID,919.988,VALID,0.0,VALID,97.512,VALID,-0.018,VALID,20.429,INVALID,360.0,VALID,0.0,
2019-01-02, 01:17:06,VALID,919.937,VALID,0.0,VALID,97.532,VALID,-0.003,VALID,20.421,INVALID,360.0,VALID,0.0,
2019-01-02, 01:18:06,VALID,919.943,VALID,0.0,VALID,97.628,VALID,-0.013,VALID,20.418,INVALID,360.0,VALID,0.0,
2019-01-02, 01:19:06,VALID,919.903,VALID,0.0,VALID,97.629,VALID,-0.016,VALID,20.393,INVALID,360.0,VALID,0.0,
2019-01-02, 01:20:06,VALID,919.877,VALID,0.0,VALID,97.51,VALID,-0.018,VALID,20.351,INVALID,360.0,VALID,0.0,
2019-01-02, 01:21:06,VALID,919.866,VALID,0.0,VALID,97.634,VALID,-0.014,VALID,20.381,INVALID,360.0,VALID,0.0,
2019-01-02, 01:22:06,VALID,919.875,VALID,0.0,VALID,97.729,VALID,-0.002,VALID,20.405,INVALID,360.0,VALID,0.0,
2019-01-02, 01:23:06,VALID,919.844,VALID,0.0,VALID,97.593,VALID,-0.011,VALID,20.388,INVALID,360.0,VALID,0.0,
2019-01-02, 01:24:06,VALID,919.824,VALID,0.0,VALID,97.467,VALID,-0.0,VALID,20.391,INVALID,360.0,VALID,0.0,
2019-01-02, 01:25:06,VALID,919.807,VALID,0.0,VALID,97.306,VALID,-0.003,VALID,20.38,INVALID,360.0,VALID,0.0,
2019-01-02, 01:26:06,VALID,919.774,VALID,0.0,VALID,97.113,VALID,-0.004,VALID,20.357,INVALID,360.0,VALID,0.0,
2019-01-02, 01:27:06,VALID,919.76,VALID,0.0,VALID,96.93,VALID,0.003,VALID,20.365,INVALID,360.0,VALID,0.0,
2019-01-02, 01:28:06,VALID,919.728,VALID,0.0,VALID,96.908,VALID,0.009,VALID,20.371,INVALID,360.0,VALID,0.0,
2019-01-02, 01:29:06,VALID,919.699,VALID,0.0,VALID,97.051,VALID,0.015,VALID,20.345,INVALID,360.0,VALID,0.0,
2019-01-02, 01:30:06,VALID,919.701,VALID,0.0,VALID,97.201,VALID,0.006,VALID,20.318,INVALID,360.0,VALID,0.0,
2019-01-02, 01:31:06,VALID,919.651,VALID,0.0,VALID,97.396,VALID,0.014,VALID,20.311,INVALID,360.0,VALID,0.0,
2019-01-02, 01:32:06,VALID,919.637,VALID,0.0,VALID,97.489,VALID,-0.005,VALID,20.298,INVALID,360.0,VALID,0.0,
2019-01-02, 01:33:06,VALID,919.627,VALID,0.0,VALID,97.575,VALID,-0.005,VALID,20.301,INVALID,360.0,VALID,0.0,
2019-01-02, 01:34:06,VALID,919.59,VALID,0.0,VALID,97.461,VALID,-0.002,VALID,20.269,INVALID,360.0,VALID,0.0,
2019-01-02, 01:35:06,VALID,919.589,VALID,0.0,VALID,97.33,VALID,0.015,VALID,20.287,INVALID,360.0,VALID,0.0,
2019-01-02, 01:36:06,VALID,919.56,VALID,0.0,VALID,97.267,VALID,0.017,VALID,20.294,INVALID,360.0,VALID,0.0,
2019-01-02, 01:37:06,VALID,919.545,VALID,0.0,VALID,97.245,VALID,0.025,VALID,20.309,INVALID,360.0,VALID,0.0,
2019-01-02, 01:38:06,VALID,919.537,VALID,0.0,VALID,97.222,VALID,-0.001,VALID,20.322,INVALID,360.0,VALID,0.0,
2019-01-02, 01:39:06,VALID,919.528,VALID,0.0,VALID,97.076,VALID,0.005,VALID,20.297,INVALID,360.0,VALID,0.0,
2019-01-02, 01:40:06,VALID,919.536,VALID,0.0,VALID,96.943,VALID,0.02,VALID,20.3,INVALID,360.0,VALID,0.0,
2019-01-02, 01:41:06,VALID,919.532,VALID,0.0,VALID,97.003,VALID,-0.0,VALID,20.336,INVALID,360.0,VALID,0.0,
2019-01-02, 01:42:06,VALID,919.532,VALID,0.0,VALID,96.897,VALID,0.01,VALID,20.33,INVALID,360.0,VALID,0.0,
2019-01-02, 01:43:06,VALID,919.518,VALID,0.0,VALID,96.788,VALID,0.007,VALID,20.285,INVALID,360.0,VALID,0.0,
2019-01-02, 01:44:06,VALID,919.493,VALID,0.0,VALID,96.878,VALID,-0.019,VALID,20.25,INVALID,360.0,VALID,0.0,
2019-01-02, 01:45:06,VALID,919.492,VALID,0.0,VALID,96.957,VALID,0.003,VALID,20.199,INVALID,360.0,VALID,0.0,
2019-01-02, 01:46:06,VALID,919.464,VALID,0.0,VALID,97.087,VALID,-0.003,VALID,20.163,INVALID,360.0,VALID,0.0,
2019-01-02, 01:47:06,VALID,919.417,VALID,0.0,VALID,97.242,VALID,-0.011,VALID,20.154,INVALID,360.0,VALID,0.0,
2019-01-02, 01:48:06,VALID,919.395,VALID,0.0,VALID,97.279,VALID,-0.007,VALID,20.139,INVALID,360.0,VALID,0.0,
2019-01-02, 01:49:06,VALID,919.352,VALID,0.0,VALID,97.369,VALID,-0.019,VALID,20.139,INVALID,360.0,VALID,0.0,
2019-01-02, 01:50:06,VALID,919.339,VALID,0.0,VALID,97.4,VALID,-0.014,VALID,20.137,INVALID,360.0,VALID,0.0,
2019-01-02, 01:51:06,VALID,919.326,VALID,0.0,VALID,97.426,VALID,-0.03,VALID,20.141,INVALID,360.0,VALID,0.0,
2019-01-02, 01:52:06,VALID,919.302,VALID,0.0,VALID,97.328,VALID,-0.012,VALID,20.103,INVALID,360.0,VALID,0.0,
2019-01-02, 01:53:06,VALID,919.307,VALID,0.0,VALID,97.133,VALID,-0.003,VALID,20.028,INVALID,360.0,VALID,0.0,
2019-01-02, 01:54:06,VALID,919.267,VALID,0.0,VALID,97.265,VALID,-0.014,VALID,20.009,INVALID,360.0,VALID,0.0,
2019-01-02, 01:55:06,VALID,919.245,VALID,0.0,VALID,97.452,VALID,-0.023,VALID,20.001,INVALID,360.0,VALID,0.0,
2019-01-02, 01:56:06,VALID,919.238,VALID,0.0,VALID,97.543,VALID,0.0,VALID,19.989,INVALID,360.0,VALID,0.0,
2019-01-02, 01:57:06,VALID,919.22,VALID,0.0,VALID,97.618,VALID,0.008,VALID,19.979,INVALID,360.0,VALID,0.0,
2019-01-02, 01:58:06,VALID,919.226,VALID,0.0,VALID,97.7,VALID,0.012,VALID,19.976,INVALID,360.0,VALID,0.0,
2019-01-02, 01:59:06,VALID,919.203,VALID,0.0,VALID,97.753,VALID,0.007,VALID,19.969,INVALID,360.0,VALID,0.0,
2019-01-02, 02:00:06,VALID,919.213,VALID,0.0,VALID,97.811,VALID,0.006,VALID,19.96,INVALID,360.0,VALID,0.0,
2019-01-02, 02:01:06,VALID,919.183,VALID,0.0,VALID,97.756,VALID,0.013,VALID,19.927,INVALID,360.0,VALID,0.0,
2019-01-02, 02:02:06,VALID,919.173,VALID,0.0,VALID,97.974,VALID,0.024,VALID,19.972,INVALID,360.0,VALID,0.0,
2019-01-02, 02:03:06,VALID,919.16,VALID,0.0,VALID,98.045,VALID,0.005,VALID,19.974,INVALID,360.0,VALID,0.0,
2019-01-02, 02:04:06,VALID,919.15,VALID,0.0,VALID,98.048,VALID,0.023,VALID,19.955,INVALID,360.0,VALID,0.0,
2019-01-02, 02:05:06,VALID,919.133,VALID,0.0,VALID,98.078,VALID,0.027,VALID,19.953,INVALID,360.0,VALID,0.0,
2019-01-02, 02:06:06,VALID,919.147,VALID,0.0,VALID,98.107,VALID,0.024,VALID,19.95,INVALID,360.0,VALID,0.0,
2019-01-02, 02:07:06,VALID,919.131,VALID,0.0,VALID,98.153,VALID,0.015,VALID,19.958,INVALID,360.0,VALID,0.0,
2019-01-02, 02:08:06,VALID,919.128,VALID,0.0,VALID,98.188,VALID,-0.004,VALID,19.967,INVALID,360.0,VALID,0.0,
2019-01-02, 02:09:06,VALID,919.126,VALID,0.0,VALID,98.212,VALID,-0.025,VALID,19.97,INVALID,360.0,VALID,0.0,
2019-01-02, 02:10:06,VALID,919.119,VALID,0.0,VALID,98.123,VALID,-0.011,VALID,19.931,INVALID,360.0,VALID,0.0,
2019-01-02, 02:11:06,VALID,919.112,VALID,0.0,VALID,98.022,VALID,-0.016,VALID,19.89,INVALID,360.0,VALID,0.0,
2019-01-02, 02:12:06,VALID,919.107,VALID,0.0,VALID,98.042,VALID,-0.024,VALID,19.892,INVALID,360.0,VALID,0.0,
2019-01-02, 02:13:06,VALID,919.126,VALID,0.0,VALID,98.072,VALID,-0.009,VALID,19.894,INVALID,360.0,VALID,0.0,
2019-01-02, 02:14:06,VALID,919.124,VALID,0.0,VALID,98.039,VALID,-0.025,VALID,19.884,INVALID,360.0,VALID,0.0,
2019-01-02, 02:15:06,VALID,919.103,VALID,0.0,VALID,97.943,VALID,-0.026,VALID,19.84,INVALID,360.0,VALID,0.0,
2019-01-02, 02:16:06,VALID,919.108,VALID,0.0,VALID,97.946,VALID,-0.015,VALID,19.826,INVALID,360.0,VALID,0.0,
2019-01-02, 02:17:06,VALID,919.088,VALID,0.0,VALID,98.13,VALID,-0.021,VALID,19.86,INVALID,360.0,VALID,0.0,
2019-01-02, 02:18:06,VALID,919.062,VALID,0.0,VALID,98.236,VALID,-0.015,VALID,19.877,INVALID,360.0,VALID,0.0,
2019-01-02, 02:19:06,VALID,919.037,VALID,0.0,VALID,98.252,VALID,0.001,VALID,19.87,INVALID,360.0,VALID,0.0,
2019-01-02, 02:20:06,VALID,919.025,VALID,0.0,VALID,98.298,VALID,-0.017,VALID,19.846,INVALID,360.0,VALID,0.0,
2019-01-02, 02:21:06,VALID,919.033,VALID,0.0,VALID,98.286,VALID,-0.009,VALID,19.802,INVALID,360.0,VALID,0.0,
2019-01-02, 02:22:06,VALID,919.032,VALID,0.0,VALID,98.331,VALID,-0.01,VALID,19.778,INVALID,360.0,VALID,0.0,
2019-01-02, 02:23:06,VALID,919.018,VALID,0.0,VALID,98.37,VALID,-0.004,VALID,19.777,INVALID,360.0,VALID,0.0,
2019-01-02, 02:24:06,VALID,918.998,VALID,0.0,VALID,98.444,VALID,0.002,VALID,19.792,INVALID,360.0,VALID,0.0,
2019-01-02, 02:25:06,VALID,918.987,VALID,0.0,VALID,98.432,VALID,-0.015,VALID,19.771,INVALID,360.0,VALID,0.0,
2019-01-02, 02:26:06,VALID,918.958,VALID,0.0,VALID,98.546,VALID,0.001,VALID,19.812,INVALID,360.0,VALID,0.0,
2019-01-02, 02:27:06,VALID,918.954,VALID,0.0,VALID,98.616,VALID,-0.009,VALID,19.863,INVALID,360.0,VALID,0.0,
2019-01-02, 02:28:06,VALID,918.947,VALID,0.0,VALID,98.507,VALID,-0.016,VALID,19.814,INVALID,360.0,VALID,0.0,
2019-01-02, 02:29:06,VALID,918.956,VALID,0.0,VALID,98.491,VALID,0.006,VALID,19.788,INVALID,360.0,VALID,0.0,
2019-01-02, 02:30:06,VALID,918.951,VALID,0.0,VALID,98.551,VALID,0.002,VALID,19.815,INVALID,360.0,VALID,0.0,
2019-01-02, 02:31:06,VALID,918.954,VALID,0.0,VALID,98.581,VALID,-0.009,VALID,19.855,INVALID,360.0,VALID,0.0,
2019-01-02, 02:32:06,VALID,918.926,VALID,0.0,VALID,98.468,VALID,-0.016,VALID,19.842,INVALID,360.0,VALID,0.0,
2019-01-02, 02:33:06,VALID,918.901,VALID,0.0,VALID,98.348,VALID,-0.024,VALID,19.801,INVALID,360.0,VALID,0.0,
2019-01-02, 02:34:06,VALID,918.913,VALID,0.0,VALID,98.363,VALID,-0.031,VALID,19.818,INVALID,360.0,VALID,0.0,
2019-01-02, 02:35:06,VALID,918.898,VALID,0.0,VALID,98.388,VALID,-0.005,VALID,19.833,INVALID,360.0,VALID,0.0,
2019-01-02, 02:36:06,VALID,918.892,VALID,0.0,VALID,98.361,VALID,-0.005,VALID,19.83,INVALID,360.0,VALID,0.0,
2019-01-02, 02:37:06,VALID,918.898,VALID,0.0,VALID,98.461,VALID,0.0,VALID,19.915,INVALID,360.0,VALID,0.0,
2019-01-02, 02:38:06,VALID,918.911,VALID,0.0,VALID,98.474,VALID,0.004,VALID,19.965,INVALID,360.0,VALID,0.0,
2019-01-02, 02:39:06,VALID,918.936,VALID,0.0,VALID,98.354,VALID,0.007,VALID,19.925,INVALID,360.0,VALID,0.0,
2019-01-02, 02:40:06,VALID,918.932,VALID,0.0,VALID,98.303,VALID,-0.0,VALID,19.961,INVALID,360.0,VALID,0.0,
2019-01-02, 02:41:06,VALID,918.939,VALID,0.0,VALID,98.33,VALID,0.001,VALID,20.038,INVALID,360.0,VALID,0.0,
2019-01-02, 02:42:06,VALID,918.948,VALID,0.0,VALID,98.201,VALID,-0.005,VALID,20.048,INVALID,360.0,VALID,0.0,
2019-01-02, 02:43:06,VALID,918.947,VALID,0.0,VALID,98.017,VALID,-0.017,VALID,20.036,INVALID,360.0,VALID,0.0,
2019-01-02, 02:44:06,VALID,918.951,VALID,0.0,VALID,97.899,VALID,-0.008,VALID,20.027,INVALID,360.0,VALID,0.0,
2019-01-02, 02:45:06,VALID,918.947,VALID,0.0,VALID,97.799,VALID,-0.001,VALID,20.037,INVALID,360.0,VALID,0.0,
2019-01-02, 02:46:06,VALID,918.968,VALID,0.0,VALID,97.839,VALID,-0.013,VALID,20.084,INVALID,360.0,VALID,0.0,
2019-01-02, 02:47:06,VALID,918.958,VALID,0.0,VALID,97.773,VALID,-0.007,VALID,20.099,INVALID,360.0,VALID,0.0,
2019-01-02, 02:48:06,VALID,918.938,VALID,0.0,VALID,97.568,VALID,-0.007,VALID,20.058,INVALID,360.0,VALID,0.0,
2019-01-02, 02:49:06,VALID,918.927,VALID,0.0,VALID,97.366,VALID,-0.011,VALID,20.032,INVALID,360.0,VALID,0.0,
2019-01-02, 02:50:06,VALID,918.905,VALID,0.0,VALID,97.243,VALID,-0.016,VALID,20.052,INVALID,360.0,VALID,0.0,
2019-01-02, 02:51:06,VALID,918.885,VALID,0.0,VALID,97.088,VALID,-0.017,VALID,20.076,INVALID,360.0,VALID,0.0,
2019-01-02, 02:52:06,VALID,918.874,VALID,0.0,VALID,96.846,VALID,-0.02,VALID,20.085,INVALID,360.0,VALID,0.0,
2019-01-02, 02:53:06,VALID,918.914,VALID,0.0,VALID,97.048,VALID,-0.005,VALID,20.135,INVALID,360.0,VALID,0.0,
2019-01-02, 02:54:06,VALID,918.907,VALID,0.0,VALID,96.917,VALID,-0.016,VALID,20.121,INVALID,360.0,VALID,0.0,
2019-01-02, 02:55:06,VALID,918.914,VALID,0.0,VALID,97.059,VALID,-0.003,VALID,20.143,INVALID,360.0,VALID,0.0,
2019-01-02, 02:56:06,VALID,918.906,VALID,0.0,VALID,97.282,VALID,0.016,VALID,20.157,INVALID,360.0,VALID,0.0,
2019-01-02, 02:57:06,VALID,918.925,VALID,0.0,VALID,97.396,VALID,0.01,VALID,20.154,INVALID,360.0,VALID,0.0,
2019-01-02, 02:58:06,VALID,918.926,VALID,0.0,VALID,97.465,VALID,0.015,VALID,20.142,INVALID,360.0,VALID,0.0,
2019-01-02, 02:59:06,VALID,918.933,VALID,0.0,VALID,97.514,VALID,0.03,VALID,20.141,INVALID,360.0,VALID,0.0,
2019-01-02, 03:00:06,VALID,918.938,VALID,0.0,VALID,97.563,VALID,0.02,VALID,20.151,INVALID,360.0,VALID,0.0,
2019-01-02, 03:01:06,VALID,918.929,VALID,0.0,VALID,97.632,VALID,0.02,VALID,20.172,INVALID,360.0,VALID,0.0,
2019-01-02, 03:02:06,VALID,918.94,VALID,0.0,VALID,97.63,VALID,0.013,VALID,20.177,INVALID,360.0,VALID,0.0,
2019-01-02, 03:03:06,VALID,918.934,VALID,0.0,VALID,97.613,VALID,0.025,VALID,20.192,INVALID,360.0,VALID,0.0,
2019-01-02, 03:04:06,VALID,918.918,VALID,0.0,VALID,97.586,VALID,0.027,VALID,20.187,INVALID,360.0,VALID,0.0,
2019-01-02, 03:05:06,VALID,918.896,VALID,0.0,VALID,97.586,VALID,0.03,VALID,20.185,INVALID,360.0,VALID,0.0,
2019-01-02, 03:06:06,VALID,918.89,VALID,0.0,VALID,97.512,VALID,0.009,VALID,20.151,INVALID,360.0,VALID,0.0,
2019-01-02, 03:07:06,VALID,918.866,VALID,0.0,VALID,97.577,VALID,0.014,VALID,20.126,INVALID,360.0,VALID,0.0,
2019-01-02, 03:08:06,VALID,918.868,VALID,0.0,VALID,97.647,VALID,0.019,VALID,20.114,INVALID,360.0,VALID,0.0,
2019-01-02, 03:09:06,VALID,918.865,VALID,0.0,VALID,97.604,VALID,0.025,VALID,20.082,INVALID,360.0,VALID,0.0,
2019-01-02, 03:10:06,VALID,918.877,VALID,0.0,VALID,97.588,VALID,0.011,VALID,20.07,INVALID,360.0,VALID,0.0,
2019-01-02, 03:11:06,VALID,918.853,VALID,0.0,VALID,97.507,VALID,0.006,VALID,20.03,INVALID,360.0,VALID,0.0,
2019-01-02, 03:12:06,VALID,918.84,VALID,0.0,VALID,97.61,VALID,-0.001,VALID,20.017,INVALID,360.0,VALID,0.0,
2019-01-02, 03:13:06,VALID,918.821,VALID,0.0,VALID,97.723,VALID,-0.019,VALID,20.013,INVALID,360.0,VALID,0.0,
2019-01-02, 03:14:06,VALID,918.818,VALID,0.0,VALID,97.792,VALID,-0.009,VALID,19.992,INVALID,360.0,VALID,0.0,
2019-01-02, 03:15:06,VALID,918.808,VALID,0.0,VALID,97.763,VALID,-0.005,VALID,19.949,INVALID,360.0,VALID,0.0,
2019-01-02, 03:16:06,VALID,918.809,VALID,0.0,VALID,97.83,VALID,-0.004,VALID,19.94,INVALID,360.0,VALID,0.0,
2019-01-02, 03:17:06,VALID,918.785,VALID,0.0,VALID,97.936,VALID,-0.011,VALID,19.955,INVALID,360.0,VALID,0.0,
2019-01-02, 03:18:06,VALID,918.795,VALID,0.0,VALID,97.961,VALID,0.003,VALID,19.948,INVALID,360.0,VALID,0.0,
2019-01-02, 03:19:06,VALID,918.782,VALID,0.0,VALID,98.076,VALID,-0.01,VALID,19.973,INVALID,360.0,VALID,0.0,
2019-01-02, 03:20:06,VALID,918.782,VALID,0.0,VALID,98.077,VALID,0.004,VALID,19.963,INVALID,360.0,VALID,0.0,
2019-01-02, 03:21:06,VALID,918.791,VALID,0.0,VALID,98.065,VALID,-0.009,VALID,19.936,INVALID,360.0,VALID,0.0,
2019-01-02, 03:22:06,VALID,918.783,VALID,0.0,VALID,98.084,VALID,-0.019,VALID,19.911,INVALID,360.0,VALID,0.0,
2019-01-02, 03:23:06,VALID,918.802,VALID,0.0,VALID,98.197,VALID,-0.006,VALID,19.925,INVALID,360.0,VALID,0.0,
2019-01-02, 03:24:06,VALID,918.814,VALID,0.0,VALID,98.25,VALID,-0.004,VALID,19.916,INVALID,360.0,VALID,0.0,
2019-01-02, 03:25:06,VALID,918.844,VALID,0.0,VALID,98.296,VALID,-0.01,VALID,19.919,INVALID,360.0,VALID,0.0,
2019-01-02, 03:26:06,VALID,918.844,VALID,0.0,VALID,98.394,VALID,0.016,VALID,19.93,VALID,44.0,VALID,0.0,
2019-01-02, 03:27:06,VALID,918.86,VALID,0.0,VALID,98.341,VALID,0.03,VALID,19.914,INVALID,360.0,VALID,0.0,
2019-01-02, 03:28:06,VALID,918.838,VALID,0.0,VALID,98.352,VALID,-0.009,VALID,19.922,INVALID,360.0,VALID,0.0,
2019-01-02, 03:29:06,VALID,918.827,VALID,0.0,VALID,98.377,VALID,0.008,VALID,19.929,INVALID,360.0,VALID,0.0,
2019-01-02, 03:30:06,VALID,918.817,VALID,0.0,VALID,98.326,VALID,0.004,VALID,19.892,INVALID,360.0,VALID,0.0,
2019-01-02, 03:31:06,VALID,918.831,VALID,0.0,VALID,98.335,VALID,0.014,VALID,19.88,INVALID,360.0,VALID,0.0,
2019-01-02, 03:32:06,VALID,918.795,VALID,0.0,VALID,98.398,VALID,0.015,VALID,19.894,INVALID,360.0,VALID,0.0,
2019-01-02, 03:33:06,VALID,918.783,VALID,0.0,VALID,98.434,VALID,0.011,VALID,19.915,INVALID,360.0,VALID,0.0,
2019-01-02, 03:34:06,VALID,918.751,VALID,0.0,VALID,98.448,VALID,0.012,VALID,19.926,INVALID,360.0,VALID,0.0,
2019-01-02, 03:35:06,VALID,918.73,VALID,0.0,VALID,98.498,VALID,-0.011,VALID,19.953,INVALID,360.0,VALID,0.0,
2019-01-02, 03:36:06,VALID,918.734,VALID,0.0,VALID,98.493,VALID,0.012,VALID,19.966,INVALID,360.0,VALID,0.0,
2019-01-02, 03:37:06,VALID,918.711,VALID,0.0,VALID,98.454,VALID,0.023,VALID,19.952,INVALID,360.0,VALID,0.0,
2019-01-02, 03:38:06,VALID,918.703,VALID,0.0,VALID,98.445,VALID,0.009,VALID,19.936,INVALID,360.0,VALID,0.0,